Temp
24 22 22 22 22 23 23 24 24 25 26 26 26 25 24 23 24 27 29 29 30 28 27 28 28 27 24 22 22 23 25 24 23 22 21 20 19 18 18 17 17 17 18 18 18 18 18 18 18 18 18 18 18 18 18 18 18 19 20 20 20 20 20 20 20 20 20 20 20 20 20 20 20 19 19 19 19 20 19 19 19 19 19 19 19 19
23 21 21 22 23 24 24 24 25 25 26 26 25 24 24 24 25 28 29 29 30 28 27 29 27 24 22 20 21 22 22 22 22 21 20 19 18 18 18 18 18 18 18 18 17 17 18 18 18 18 18 18 18 18 18 18 19 19 19 20 20 20 20 20 20 20 19 19 20 20 19 19 19 19 19 19 19 20 20 19 19 19 18 18 18 19
21 21 21 23 24 24 25 25 25 25 25 25 25 24 23 24 26 28 29 29 29 28 27 27 24 22 21 20 20 20 20 20 20 20 19 19 18 18 18 18 18 18 17 17 17 17 17 17 17 17 17 17 17 17 18 18 18 18 19 19 19 19 19 19 19 19 19 19 19 19 19 19 19 19 19 19 19 19 20 20 19 19 19 18 18 18
20 21 23 24 24 24 24 25 25 25 25 24 24 23 22 25 26 24 27 29 29 28 26 24 22 21 21 20 20 20 20 20 19 19 19 19 18 18 18 18 18 17 17 17 17 17 17 17 17 17 16 16 17 17 17 17 18 18 18 18 19 19 19 19 19 19 19 19 19 19 19 19 19 19 19 19 19 19 19 19 19 19 19 18 18 18
21 22 24 24 24 24 24 24 25 24 23 24 25 24 23 25 26 26 27 29 29 28 25 23 21 21 21 20 20 20 20 20 19 19 19 18 18 18 18 18 17 17 17 17 16 16 16 16 16 16 16 16 16 16 16 17 17 17 17 18 18 18 18 18 18 18 19 19 19 19 19 19 19 19 19 19 19 19 19 19 19 19 19 19 18 18
22 24 24 24 24 24 24 24 25 24 22 23 25 25 25 26 27 28 28 27 25 23 24 24 21 20 21 20 19 19 19 19 19 19 18 18 18 17 17 17 17 17 16 16 16 16 16 16 16 16 16 16 16 16 16 16 16 16 17 17 17 17 17 17 17 18 18 18 19 19 19 19 19 19 19 19 19 19 19 19 19 19 19 19 19 18
23 25 25 24 24 24 24 24 25 25 23 22 25 27 27 27 27 27 27 25 22 21 25 25 21 20 21 20 19 19 18 18 18 18 18 18 17 17 17 17 17 16 16 16 16 16 16 16 15 15 15 15 15 15 16 16 16 16 16 16 16 16 16 17 17 17 17 18 18 18 18 18 18 18 19 19 19 19 19 19 19 19 18 18 18 18
24 24 24 24 24 24 24 24 25 26 23 22 26 28 27 27 27 27 27 25 23 24 24 25 22 20 20 20 20 19 18 17 17 17 17 17 17 17 17 17 16 16 16 16 16 16 16 15 15 15 15 15 15 15 15 15 15 15 15 16 16 16 16 16 16 16 17 17 17 17 17 17 17 17 18 18 18 18 18 18 18 18 18 18 18 18
24 24 24 25 24 23 24 24 26 27 25 25 28 29 28 28 27 27 26 25 25 24 22 22 23 20 20 20 20 19 18 17 16 16 16 17 17 17 16 16 16 16 16 16 15 15 15 15 15 15 15 15 15 15 15 15 15 15 15 15 15 16 15 15 16 16 16 16 16 16 16 16 16 16 17 17 17 17 18 18 18 18 18 18 18 18
25 25 25 25 24 24 25 26 27 26 26 27 28 28 28 28 28 28 27 24 24 23 21 21 22 21 20 19 19 18 18 17 16 16 16 17 17 17 16 16 16 16 15 15 15 15 15 15 15 15 15 15 15 15 15 15 15 15 15 15 15 15 15 15 15 15 15 15 15 15 15 15 15 16 16 16 16 16 17 17 17 17 17 17 17 17
25 26 26 26 25 25 26 27 27 27 27 28 28 27 27 27 27 27 26 25 22 21 21 22 23 22 20 19 19 19 18 17 17 16 16 17 17 17 16 16 16 15 15 15 15 15 15 15 15 15 15 15 15 15 15 15 15 15 15 15 15 15 15 15 15 15 15 15 15 15 15 15 15 15 15 15 15 15 16 16 16 16 16 16 16 16
25 26 26 27 27 27 27 27 27 28 28 28 27 26 24 24 25 24 23 23 21 20 22 23 24 23 20 19 20 20 19 18 17 16 16 16 17 17 17 16 16 15 15 15 15 15 15 15 15 14 14 15 15 15 15 15 15 15 15 15 15 15 15 15 15 15 15 15 15 15 15 15 14 14 14 14 15 15 15 15 15 15 15 15 16 16
24 25 26 26 27 28 27 25 26 27 27 27 26 24 22 21 22 21 21 21 21 21 22 24 24 22 19 19 20 19 18 17 17 17 17 17 16 16 16 16 16 15 15 15 15 14 15 14 14 14 14 14 15 15 15 15 15 15 15 15 15 15 15 15 15 15 15 15 15 15 15 15 14 14 14 14 14 14 14 14 14 14 14 14 15 15
22 24 26 26 26 28 27 24 23 24 25 25 24 22 21 21 21 21 21 21 21 21 23 25 24 20 18 18 18 18 17 17 17 17 17 17 16 16 16 16 15 15 15 15 14 14 14 14 14 14 14 14 14 15 15 15 15 15 15 15 15 15 15 15 15 15 15 15 15 14 15 14 14 14 14 14 14 14 14 14 14 14 14 14 14 14
20 21 24 25 25 27 27 26 25 25 25 25 26 24 22 21 21 21 21 21 21 21 22 24 22 19 18 18 17 17 17 17 17 17 17 17 16 16 15 15 15 15 14 14 14 14 14 14 14 14 14 14 14 15 15 15 15 15 15 15 15 15 15 15 15 15 15 15 14 14 14 14 14 14 14 14 13 13 13 13 13 13 13 13 14 14
21 21 24 26 26 27 27 27 28 27 25 25 27 25 22 23 23 21 21 21 21 21 21 19 18 17 17 17 17 17 17 17 17 17 17 16 16 15 14 14 14 14 14 14 13 14 14 14 14 14 14 14 15 15 15 15 15 15 15 15 15 15 15 15 15 15 15 14 14 14 14 14 14 14 14 13 13 13 13 13 13 13 13 13 13 14
21 21 25 27 26 27 27 27 28 26 24 25 25 23 23 26 25 22 21 21 21 21 19 17 16 17 17 17 17 17 16 17 17 16 16 16 15 14 14 13 13 13 13 13 13 14 14 14 14 14 14 14 15 15 15 15 15 15 15 15 15 15 15 15 15 14 14 14 14 14 14 14 14 14 13 13 13 13 13 13 13 13 13 13 13 13
22 22 25 26 25 26 28 27 27 27 26 24 23 23 26 27 26 23 21 21 21 21 18 17 17 17 17 17 16 16 16 16 16 16 16 15 14 13 13 13 13 13 13 13 14 14 14 14 14 14 14 15 15 15 15 15 14 14 14 14 15 15 15 15 14 14 14 14 14 13 13 13 13 13 13 13 13 13 13 13 13 13 12 12 13 13
23 21 23 26 25 26 27 26 25 26 27 25 24 26 26 23 23 22 21 20 21 20 18 17 17 17 17 17 16 16 16 16 16 16 15 14 14 13 13 13 13 13 13 13 13 14 14 14 15 15 15 15 15 15 14 14 14 14 14 14 14 14 15 14 14 14 13 13 13 13 13 13 13 13 13 13 12 12 12 12 12 12 12 12 12 12
24 22 22 25 26 26 26 24 22 23 25 26 26 27 26 23 22 22 22 21 21 20 19 17 17 18 18 17 16 16 16 16 16 15 14 14 13 13 13 13 13 13 13 13 13 14 14 15 15 15 15 15 15 14 14 14 14 14 14 14 14 14 14 14 14 14 13 13 13 13 13 12 12 12 12 12 12 12 12 12 12 11 11 11 11 11
24 22 21 23 25 24 23 23 23 22 23 24 24 24 24 24 24 23 23 22 21 21 19 18 17 17 17 16 17 17 17 17 16 15 14 14 13 13 13 13 13 13 13 13 14 14 14 15 15 15 15 15 14 14 14 14 14 14 14 14 14 14 14 14 14 13 13 13 12 12 12 12 12 12 12 11 11 11 11 11 11 11 11 10 10 10
23 22 21 22 23 22 22 24 25 25 25 24 23 23 23 23 23 22 22 22 22 21 19 18 18 17 15 15 16 17 17 17 16 15 14 13 13 13 12 13 13 13 13 13 14 14 14 14 14 14 15 14 14 14 14 14 14 14 14 14 14 14 14 14 13 13 13 12 12 12 12 11 11 11 11 11 11 11 11 10 10 10 10 9 9 9
24 22 21 21 22 23 24 26 26 26 26 26 25 25 25 24 23 21 20 21 22 21 20 19 19 17 15 14 16 17 17 16 15 14 13 13 12 12 12 13 13 13 13 14 14 14 14 14 14 15 14 14 14 14 14 14 14 14 14 14 14 14 14 13 13 12 12 12 12 11 11 11 11 11 11 11 10 10 10 10 9 9 9 9 9 8
25 23 21 21 22 24 26 26 26 27 26 25 25 26 25 24 24 23 23 22 22 21 20 20 18 16 15 15 16 17 16 15 14 14 13 12 12 12 13 13 13 13 13 14 14 14 14 14 14 14 14 14 14 14 14 14 13 14 14 13 13 13 13 13 12 12 12 11 11 11 11 11 11 11 11 10 10 10 10 9 9 9 9 8 8 8
23 22 21 21 21 22 23 23 24 25 25 24 24 26 26 25 25 25 24 23 22 21 21 20 17 15 15 16 16 16 15 14 14 13 13 12 12 12 13 13 13 13 13 13 13 13 13 13 13 13 13 13 13 13 13 13 13 14 13 13 13 13 12 12 11 11 11 11 11 11 11 11 10 10 10 10 10 10 9 9 9 9 8 8 8 8
23 22 22 21 20 20 20 21 21 22 23 23 24 25 26 26 25 24 22 22 21 20 21 19 16 14 14 15 15 15 14 13 13 13 13 13 12 12 13 13 13 13 13 13 13 13 12 12 12 13 13 13 13 13 13 13 13 13 13 12 12 12 12 11 11 11 11 11 10 10 10 10 10 10 10 10 10 9 9 9 8 8 8 8 8 7
23 23 22 21 21 21 21 21 23 23 22 22 23 24 25 26 26 24 22 21 21 20 20 17 15 14 14 14 14 14 13 13 13 13 13 13 13 12 13 13 13 13 13 13 13 12 12 12 12 12 12 13 13 13 13 13 13 13 13 12 12 12 11 11 11 11 10 10 10 10 10 10 10 10 10 9 9 9 9 8 8 8 8 8 8 7
23 22 22 22 21 22 22 22 24 24 23 22 22 23 24 25 25 24 22 21 20 20 19 15 15 15 14 14 13 13 13 13 12 12 12 12 12 13 13 13 13 13 13 13 12 12 12 12 11 12 12 12 13 13 13 13 13 13 12 12 12 11 11 11 11 11 10 10 10 10 10 10 10 10 9 9 9 9 8 8 8 8 8 8 7 7
23 21 22 22 22 22 23 23 23 23 23 23 24 24 24 25 24 23 22 21 22 22 19 15 15 15 14 14 13 13 13 13 12 13 13 13 13 13 13 13 13 13 13 12 12 12 12 12 11 11 12 12 12 13 13 13 13 13 12 12 12 11 11 11 11 11 11 10 10 10 10 10 10 10 9 9 9 9 8 8 8 8 8 8 7 7
23 21 21 22 21 21 22 23 22 22 21 21 22 23 22 22 22 21 19 18 19 19 17 15 14 14 13 13 13 13 13 13 13 13 13 13 13 13 13 13 13 13 12 12 12 12 12 11 11 12 12 12 12 12 13 13 13 13 13 12 12 12 12 11 11 11 11 10 10 10 10 10 10 10 9 9 9 9 8 8 8 8 7 7 7 7
23 20 21 22 21 21 22 21 20 19 18 18 18 19 19 19 18 17 16 16 16 15 14 14 13 13 13 13 13 12 13 13 13 13 13 13 13 13 13 13 13 12 12 12 12 12 11 11 11 12 12 12 12 12 12 13 13 13 13 12 12 12 12 12 11 11 11 10 10 10 10 10 10 10 9 9 9 9 8 8 8 8 7 7 7 7
22 20 21 21 20 19 20 20 19 18 18 17 16 16 17 17 17 16 16 16 15 14 13 13 13 12 12 12 12 12 12 12 12 13 13 13 13 13 13 12 12 12 12 11 11 11 11 11 11 11 12 12 12 12 12 12 12 12 12 12 12 12 12 12 11 11 11 10 10 10 10 10 10 10 10 9 9 9 8 8 8 8 7 7 7 7
21 20 20 20 19 18 17 18 19 20 20 18 16 15 16 16 16 15 15 15 15 14 13 13 13 12 11 12 12 12 12 12 12 13 13 13 13 13 12 12 12 11 11 11 11 11 11 11 11 12 12 12 12 12 12 12 12 12 12 12 12 12 12 12 11 11 11 10 10 10 10 10 10 10 10 9 9 8 8 8 8 8 7 7 7 6
19 19 18 18 19 17 15 17 19 20 19 16 15 15 16 15 15 14 13 13 14 14 13 13 12 11 11 12 11 11 12 12 13 13 14 13 13 12 12 11 11 11 11 11 11 11 11 11 12 12 12 12 12 12 12 12 12 12 12 12 12 12 12 12 11 11 10 10 10 10 10 10 10 10 10 9 9 8 8 8 8 8 7 7 7 6
18 18 17 16 17 16 15 17 18 17 16 15 15 15 15 14 13 12 11 11 12 12 12 11 11 11 11 12 12 12 12 12 12 13 13 13 12 12 11 11 10 10 11 11 10 10 11 12 12 12 12 12 12 12 12 12 12 12 12 12 12 12 12 12 11 11 10 10 10 10 10 10 10 9 9 9 9 8 8 8 8 8 7 7 7 6
18 18 16 16 16 15 15 16 16 15 14 14 15 14 14 14 14 14 12 11 11 11 11 11 11 11 12 12 12 12 11 11 11 11 12 12 12 11 11 10 10 10 10 11 10 11 11 12 12 12 12 12 12 12 12 12 12 12 12 12 12 12 12 11 11 11 10 10 10 10 10 10 9 9 9 9 9 9 8 8 8 7 7 7 7 6
18 18 17 16 15 15 14 13 13 13 13 14 14 15 15 15 16 15 13 11 11 11 11 11 11 11 11 11 11 11 11 11 10 10 11 11 11 11 11 10 11 11 11 11 11 11 12 12 12 12 12 12 12 12 12 12 12 12 12 12 12 12 11 11 11 11 10 10 10 10 10 10 9 9 9 9 9 8 8 8 8 7 7 7 7 6
17 17 18 17 15 14 14 12 13 14 14 14 15 15 16 16 15 14 12 11 11 11 11 11 11 10 11 11 10 10 11 10 9 9 10 10 10 11 10 11 11 11 11 11 11 12 12 12 12 12 12 12 12 12 12 12 12 12 12 12 12 12 12 11 11 11 10 10 10 10 10 9 9 9 9 9 9 8 8 8 8 8 7 7 7 6
16 17 17 16 14 14 15 14 14 14 14 15 15 15 15 15 15 15 15 12 11 11 11 11 10 10 10 10 10 10 11 9 8 8 10 10 10 10 10 10 11 11 11 11 11 12 12 12 12 12 12 11 11 11 12 12 11 11 11 11 12 12 12 11 11 11 11 10 10 10 10 9 9 9 9 9 9 9 8 8 8 8 7 7 7 6
16 15 15 15 14 14 15 15 14 14 14 15 16 15 15 15 15 17 17 14 11 11 11 10 10 10 10 10 10 10 10 9 8 8 10 10 10 10 10 10 11 11 11 12 12 12 12 12 12 11 11 11 11 11 12 11 11 11 11 11 11 11 11 11 11 11 11 11 10 10 10 10 10 9 9 9 9 9 8 8 8 8 7 7 7 7
15 14 14 15 15 15 15 14 13 14 15 16 16 16 16 16 16 17 17 14 11 11 11 10 10 10 10 10 10 10 10 9 9 9 10 10 10 10 11 11 11 11 12 11 12 12 12 12 12 11 11 11 11 11 11 11 11 11 11 11 11 11 11 11 11 11 11 11 11 10 10 10 10 10 9 9 9 9 8 8 8 7 7 7 7 7
16 15 15 15 15 14 14 14 13 14 15 16 16 16 16 16 16 15 14 12 11 11 11 10 10 10 10 10 10 9 9 9 9 9 10 10 10 10 10 11 11 11 11 12 12 12 12 12 12 11 11 11 11 11 11 11 11 11 11 11 11 11 11 11 11 11 11 11 11 11 10 10 10 10 9 9 9 9 8 8 7 7 7 7 7 7
15 15 15 14 14 15 14 13 13 14 15 16 16 16 16 15 14 12 11 11 11 11 10 10 10 10 10 9 9 9 9 9 9 9 10 10 10 10 10 11 11 11 11 12 12 12 12 11 11 11 11 11 11 11 11 11 11 11 11 11 11 11 11 11 11 11 11 11 11 11 11 10 10 10 9 9 9 8 8 8 7 7 7 7 6 6
15 15 14 13 13 14 15 14 14 14 15 16 16 14 14 13 12 11 11 11 11 11 10 10 10 10 9 9 8 9 9 9 9 9 9 10 10 10 10 10 11 11 11 11 12 12 11 11 11 11 11 11 11 11 11 11 11 11 11 11 11 11 11 11 11 11 11 11 11 11 11 10 10 10 10 9 9 8 8 8 7 7 7 7 6 6
14 14 14 13 12 13 14 14 13 13 14 14 14 13 12 12 12 12 11 11 10 10 10 10 10 9 9 9 9 9 9 9 9 9 9 10 10 10 10 10 11 11 11 11 12 11 11 11 11 11 11 11 11 11 11 11 11 11 11 11 11 11 11 11 11 11 11 11 11 11 11 11 10 10 10 9 9 8 8 8 7 7 7 6 6 6
13 14 14 13 12 13 14 13 13 13 13 13 13 12 12 12 12 12 11 11 11 11 11 10 10 9 9 9 9 9 9 9 9 9 10 10 10 10 10 10 11 11 11 11 11 11 11 11 11 11 11 11 11 11 11 11 11 11 11 11 11 11 11 11 11 11 11 11 11 11 11 11 10 10 10 9 9 8 8 8 7 7 7 6 6 6
13 14 14 13 13 13 13 13 13 13 13 13 13 13 13 12 12 12 11 11 11 11 11 10 10 9 9 9 9 9 9 9 9 10 10 10 10 10 10 10 11 11 12 12 11 11 11 11 11 11 11 11 11 11 11 11 11 11 11 11 11 11 11 11 10 11 11 11 11 11 11 10 10 10 10 9 9 8 8 8 7 7 6 6 6 6
14 15 14 13 13 13 12 13 13 13 13 13 13 13 13 12 12 12 12 11 11 11 10 10 10 9 9 9 9 9 9 9 10 10 10 10 10 10 10 11 11 12 12 12 11 11 11 11 11 11 11 11 11 11 11 11 11 11 11 11 11 11 11 10 10 10 10 11 10 10 10 10 10 10 10 9 9 8 8 8 7 7 6 6 6 6
15 14 13 13 12 12 12 13 13 13 13 13 13 12 12 12 12 11 11 11 11 10 10 10 10 10 10 10 10 10 10 10 10 10 10 10 10 10 10 11 11 12 11 11 11 11 11 11 11 11 11 11 11 11 11 11 11 11 11 11 11 11 10 10 10 10 10 10 10 10 10 10 10 10 9 9 9 9 8 8 7 6 6 6 6 6
14 13 12 12 11 11 12 13 13 12 12 12 12 12 12 12 12 11 11 11 10 10 9 9 10 10 10 10 10 10 10 10 10 10 10 10 10 10 10 11 11 11 11 11 11 11 11 11 11 11 11 11 11 11 11 11 11 11 11 11 11 11 10 10 10 10 10 10 10 10 10 10 10 10 10 9 9 9 8 8 7 7 6 6 6 6
13 12 12 12 11 12 13 13 13 12 12 12 12 12 11 11 11 11 10 10 10 9 10 9 10 10 10 10 11 11 10 10 10 10 10 10 10 10 11 11 11 11 11 11 11 11 11 11 11 11 11 11 11 11 10 10 11 11 11 11 11 10 10 10 10 10 10 10 10 10 10 10 10 10 10 9 9 9 9 8 8 7 7 7 6 6
Height
748 758 761 760 760 759 758 758 759 756 753 753 755 758 760 762 760 749 745 742 740 753 761 758 764 772 779 781 775 770 771 776 782 786 791 795 799 802 805 806 806 807 808 808 807 807 809 811 812 813 814 814 814 814 818 821 821 819 818 819 819 820 821 821 822 822 823 824 824 824 825 825 825 826 826 827 827 828 828 829 829 828 828 828 828 829
747 759 759 754 753 753 753 755 755 753 752 752 755 757 757 757 753 742 741 740 737 750 759 755 767 782 787 789 784 778 782 787 787 791 797 800 803 805 806 808 808 808 809 809 810 810 811 813 813 814 815 816 817 818 820 820 819 819 818 819 819 820 821 822 822 823 823 824 824 824 824 824 825 825 826 827 827 827 828 828 829 829 829 829 828 828
755 758 753 748 748 750 751 751 753 753 752 754 756 760 762 753 745 740 738 737 737 747 756 761 777 790 789 790 790 787 791 795 793 794 800 803 805 807 808 809 809 810 812 812 813 813 814 815 815 815 816 818 819 819 819 819 818 818 818 819 820 821 822 823 823 823 824 824 824 824 824 824 825 825 826 826 827 827 828 828 828 829 829 828 828 828
761 755 747 745 746 750 752 750 751 752 752 755 756 762 763 750 744 747 742 737 737 742 754 767 783 792 791 791 793 794 795 796 798 799 802 805 806 808 808 808 810 812 814 815 816 816 817 817 817 818 819 820 820 820 819 819 818 818 819 819 820 821 822 823 824 824 824 824 824 824 824 824 824 825 825 826 826 827 827 828 828 828 828 828 827 827
754 746 740 743 745 747 751 750 749 754 756 754 752 756 757 746 740 742 740 738 738 745 753 767 789 799 795 797 800 799 798 799 801 803 805 808 808 809 809 810 811 813 815 817 818 819 819 819 820 820 821 821 821 821 821 820 820 820 820 821 822 822 823 823 823 823 823 823 824 824 824 824 824 824 825 825 826 826 827 827 827 827 827 827 826 825
745 738 736 742 744 744 748 750 747 751 758 755 747 745 746 742 737 736 738 742 753 766 759 760 797 813 799 800 805 802 803 805 805 806 809 811 810 811 812 813 814 814 816 818 819 821 821 820 822 822 823 823 822 822 822 822 822 822 822 822 823 823 823 824 823 823 823 823 823 824 824 824 824 824 825 825 825 826 826 826 826 826 825 825 824 824
737 732 732 739 741 742 746 747 741 742 755 758 744 735 735 736 737 739 741 748 761 772 759 751 788 817 806 801 805 803 807 811 810 811 812 812 812 813 814 815 816 817 818 819 820 821 821 822 823 824 824 824 824 824 824 824 824 824 824 824 824 824 824 824 824 823 823 823 823 824 825 825 825 825 825 825 825 825 825 825 825 824 824 824 823 822
730 730 732 734 738 742 745 745 737 735 749 753 735 728 732 732 736 739 742 748 751 756 758 752 771 806 812 803 801 802 808 815 815 816 815 814 815 814 815 816 817 819 820 821 822 822 822 824 824 825 826 825 825 825 825 826 826 826 826 826 826 826 826 825 825 824 824 824 824 824 825 825 825 825 825 825 825 825 825 824 824 824 823 823 822 821
725 730 730 730 737 741 739 737 732 731 742 742 727 724 728 728 732 736 738 743 741 749 770 765 764 796 812 801 798 803 809 818 820 818 818 816 816 816 816 818 818 820 821 822 823 824 824 825 826 827 827 826 826 827 828 828 829 828 828 828 828 827 827 827 826 826 825 825 825 825 825 825 826 825 825 825 824 824 823 823 823 823 822 822 821 820
721 722 721 724 733 735 731 728 725 729 735 730 724 724 725 726 730 733 738 740 742 755 773 769 761 786 811 806 803 808 810 816 819 818 818 816 816 818 818 819 821 821 822 823 824 825 825 826 827 828 828 828 829 830 831 831 831 831 831 830 830 829 829 828 828 827 827 827 827 827 827 826 826 826 825 825 824 823 822 822 821 821 821 821 820 820
715 713 713 716 721 723 723 722 721 724 726 724 726 730 731 731 730 734 737 738 756 768 765 760 753 769 806 812 802 802 801 804 811 816 818 817 816 819 819 820 822 823 824 825 825 826 827 828 829 829 830 830 832 833 833 833 833 832 832 832 831 830 830 829 829 829 828 828 828 828 828 827 827 826 826 825 824 824 823 822 821 821 821 820 820 819
714 714 713 709 709 712 718 721 720 718 720 724 729 735 743 744 739 745 747 747 772 780 761 751 743 755 797 809 795 793 794 798 806 812 816 818 818 819 820 822 823 825 827 827 828 829 830 830 831 831 832 832 833 834 834 834 834 833 833 832 832 831 831 830 830 830 829 829 829 829 828 828 827 827 826 826 826 825 824 823 822 821 820 820 819 818
719 715 710 708 705 705 716 725 724 720 721 727 731 740 757 763 759 765 767 766 776 773 754 744 745 767 800 803 792 794 797 801 806 808 812 816 818 820 821 823 825 827 828 829 831 832 832 832 832 833 833 834 835 835 835 835 835 834 833 833 833 832 832 831 831 831 830 830 829 829 829 828 827 827 827 826 826 825 824 824 822 821 821 820 818 818
730 720 709 710 709 702 709 724 732 730 727 730 734 744 761 770 775 781 778 775 776 767 750 737 751 789 808 801 796 798 799 802 804 808 811 813 817 821 822 824 826 828 830 831 833 833 834 834 834 835 835 836 836 837 837 836 836 835 834 834 833 833 832 832 832 831 831 830 829 829 829 828 828 827 827 827 826 825 825 823 822 822 821 820 819 817
739 735 714 709 711 702 704 714 721 724 726 728 726 734 751 757 766 778 776 775 776 767 754 749 770 802 811 805 803 800 800 802 804 808 811 814 818 821 824 827 828 831 831 833 834 835 835 835 835 836 837 838 838 838 838 837 836 835 835 835 834 833 833 832 832 832 831 830 829 829 829 829 828 827 827 827 827 826 824 823 822 822 821 820 819 817
733 732 706 698 701 698 704 706 705 716 728 726 719 730 745 740 743 758 759 760 766 768 774 787 801 809 808 807 805 802 805 805 805 809 812 817 821 823 828 830 831 833 834 835 836 835 836 836 837 838 839 840 839 839 839 837 837 836 836 836 835 834 833 832 832 832 831 830 829 829 830 829 829 828 827 827 827 826 824 824 823 822 821 820 818 817
728 724 701 696 700 695 701 704 701 713 727 726 726 733 733 723 729 748 755 755 760 774 796 809 812 812 811 812 809 807 810 809 808 812 814 819 824 826 831 833 834 835 835 836 836 835 837 837 838 840 840 840 840 839 839 838 838 837 836 836 835 834 833 832 832 832 831 830 830 830 830 829 829 828 827 827 826 825 824 823 823 822 821 819 818 817
719 721 703 698 707 700 696 702 702 705 713 725 732 728 722 722 726 738 757 767 766 780 804 811 810 813 814 815 813 810 812 813 811 812 816 821 826 829 832 834 835 835 835 835 835 836 838 839 839 840 840 840 840 839 839 839 839 838 837 836 835 834 833 833 832 832 831 830 830 830 830 829 829 828 828 827 826 826 824 823 823 821 820 819 818 817
708 721 711 696 705 704 696 707 716 707 704 715 721 715 722 740 742 740 756 771 774 786 806 813 811 810 808 811 814 813 813 814 813 814 819 823 826 830 832 833 835 836 835 836 836 838 839 839 839 840 840 840 839 839 839 839 839 839 837 836 835 834 834 833 833 832 831 831 831 831 831 830 830 829 828 828 827 826 824 823 822 821 820 819 817 816
701 720 721 701 699 704 706 716 727 723 711 710 714 712 718 732 739 740 745 755 767 783 800 812 814 808 802 803 807 810 810 811 813 817 820 824 827 830 832 834 836 837 837 837 838 838 838 838 839 839 839 839 839 839 840 840 840 839 838 837 835 835 834 834 833 833 832 832 832 832 832 831 831 830 829 828 827 826 824 824 822 821 820 819 817 816
701 717 725 712 701 709 718 717 720 726 722 719 724 724 723 724 727 734 738 740 750 769 793 810 813 806 801 799 799 802 805 806 810 816 820 824 827 830 832 835 837 838 839 838 838 837 837 837 838 838 839 839 839 840 841 841 840 839 838 837 836 836 835 834 834 834 834 834 834 833 832 832 831 830 829 828 827 826 825 824 822 821 820 819 818 817
704 715 723 720 713 716 717 707 706 714 715 718 724 724 724 725 730 743 750 741 736 752 779 796 803 805 804 802 800 797 799 804 809 814 821 825 827 831 833 835 837 839 838 838 837 837 837 837 838 838 838 839 840 841 841 841 840 839 838 838 837 836 835 835 835 835 835 835 835 834 833 833 832 831 829 828 827 826 825 824 823 822 821 820 819 818
695 709 720 720 714 711 707 700 702 706 706 711 714 713 716 720 727 744 756 748 738 746 766 780 792 804 805 801 799 797 798 806 811 815 821 826 829 832 834 835 836 838 837 837 837 837 837 838 838 838 839 840 841 841 841 841 840 839 839 838 838 837 836 837 837 836 837 837 836 835 834 833 832 831 830 828 827 826 826 825 824 823 822 821 820 819
691 707 720 720 713 705 701 698 699 700 705 712 712 708 712 716 720 728 736 739 740 748 764 780 796 808 806 798 796 797 801 808 814 818 823 828 831 833 835 836 836 837 837 836 837 838 838 838 838 839 840 841 841 841 841 841 841 840 839 839 838 838 838 838 838 838 838 837 837 836 834 833 832 831 830 829 828 828 827 826 825 824 823 822 821 820
697 707 716 725 728 723 719 717 713 709 708 714 715 708 708 711 715 721 724 731 742 749 757 777 800 810 805 798 797 800 805 812 817 821 824 827 832 833 835 836 836 837 838 837 838 839 839 839 840 840 841 841 842 842 842 842 842 841 840 840 840 840 840 840 839 840 839 839 838 836 835 834 833 832 831 830 830 829 828 828 827 826 825 824 823 822
698 706 711 725 737 739 738 734 727 720 715 715 715 711 708 709 714 725 731 737 750 754 755 773 800 811 806 801 803 805 808 815 819 822 825 827 831 833 834 836 837 838 839 839 840 840 840 842 842 842 842 842 842 843 843 843 842 842 842 841 841 842 841 841 841 841 841 840 839 837 836 835 834 833 833 832 832 831 830 829 828 827 826 825 824 823
696 703 705 716 726 728 729 723 714 713 718 720 718 714 712 709 710 722 733 740 750 758 765 777 790 802 807 805 807 810 812 817 821 823 826 828 831 833 834 836 836 837 839 839 840 841 842 844 844 844 844 843 844 844 844 844 843 843 843 842 843 843 843 843 843 843 842 841 840 838 837 836 836 835 835 834 834 833 832 831 830 828 827 827 826 824
699 706 704 709 716 715 716 714 709 710 716 718 719 718 715 711 712 721 732 741 746 753 772 786 784 790 803 804 805 810 813 816 821 823 826 829 831 833 834 835 837 838 839 840 841 842 844 845 846 846 845 845 845 845 844 845 844 844 844 844 844 844 844 844 845 844 843 842 840 839 839 839 838 837 837 836 835 834 833 832 831 830 829 828 826 825
699 710 707 708 715 714 711 712 712 714 714 712 713 715 715 714 716 723 733 739 736 737 762 784 785 786 796 800 803 808 810 815 820 822 825 828 830 832 833 835 837 839 840 841 843 844 846 847 847 847 847 846 846 846 845 845 845 845 845 845 845 845 845 845 845 844 843 842 841 841 841 840 839 838 838 837 836 835 834 833 832 831 830 829 828 826
696 712 709 708 718 717 713 714 715 719 722 721 721 720 722 724 726 733 744 746 742 746 763 780 787 792 796 799 804 808 810 814 819 822 826 829 829 831 833 835 837 839 841 843 845 846 847 848 849 848 848 847 846 846 846 846 846 845 845 846 846 846 846 846 846 845 844 843 843 843 842 841 840 840 839 838 837 836 835 834 833 832 831 830 829 828
697 715 710 708 721 724 718 720 725 730 735 739 742 738 735 738 740 747 755 755 758 770 779 784 793 801 802 802 806 810 812 815 819 823 827 828 829 830 832 835 838 840 842 844 846 847 848 849 850 849 849 848 847 847 847 846 846 846 846 847 847 847 848 847 847 846 845 845 844 844 843 842 841 841 840 839 838 837 836 836 835 834 833 832 830 829
699 715 713 713 728 734 728 729 733 734 735 743 751 751 747 747 750 754 755 754 761 776 789 794 798 803 804 806 809 813 814 816 820 822 825 827 828 830 833 836 838 840 843 845 846 848 849 849 850 850 849 848 848 847 847 847 847 847 847 848 848 849 849 848 848 847 846 846 846 845 844 843 843 842 841 841 840 839 838 837 836 835 834 832 831 830
703 714 720 724 734 742 742 738 734 729 734 748 758 758 755 754 753 756 760 760 762 771 782 789 793 798 803 805 810 815 816 817 819 821 823 825 827 831 834 836 839 842 843 846 847 848 849 849 849 849 849 848 848 848 848 848 848 849 849 849 850 850 850 849 848 848 847 847 847 846 846 845 844 843 843 843 842 841 840 838 837 835 834 834 832 831
710 716 726 730 736 749 752 744 738 739 749 762 763 756 754 755 755 763 774 776 774 775 777 781 788 798 803 805 809 815 816 816 818 819 821 823 826 831 834 837 840 842 844 846 848 848 849 849 849 849 849 849 849 849 849 849 850 850 850 851 851 851 851 850 849 849 849 848 848 848 847 847 846 845 845 844 844 842 841 839 838 837 836 835 834 831
716 722 732 738 742 753 755 747 749 759 766 768 763 755 756 759 761 770 784 787 784 783 784 788 794 799 803 806 810 814 816 817 818 820 822 825 828 831 835 838 840 842 845 847 847 848 849 849 849 849 849 849 850 850 850 851 851 851 852 852 852 852 851 851 850 850 850 849 849 849 849 848 848 847 846 846 845 843 842 841 839 838 837 836 835 833
715 723 734 742 749 756 759 758 762 771 771 767 765 761 761 763 762 767 784 796 793 789 789 793 798 800 802 807 811 814 819 819 821 825 826 827 830 833 836 839 841 843 845 846 847 848 848 849 849 849 849 850 850 851 851 852 852 852 853 853 853 852 852 852 851 851 851 851 850 850 850 850 849 848 848 847 846 844 843 842 841 840 839 838 837 835
712 720 729 742 753 758 766 773 775 776 775 771 768 764 760 760 759 761 781 799 797 792 792 793 797 803 805 808 812 816 818 821 827 832 832 830 833 835 838 840 842 844 845 846 847 848 848 849 849 850 850 851 851 852 852 852 853 853 853 854 854 853 853 852 852 852 852 852 852 851 851 851 850 850 849 848 847 845 844 843 842 841 840 839 837 836
716 720 723 738 756 761 768 779 781 777 774 769 765 761 756 758 758 759 776 796 797 793 794 794 796 802 804 807 814 817 817 824 834 838 835 834 835 837 840 842 843 845 846 846 848 848 848 849 850 850 851 851 852 853 853 853 854 854 854 855 854 854 854 853 853 853 853 853 853 853 852 852 851 850 849 848 847 847 846 845 844 843 841 840 838 837
723 725 724 737 756 762 763 770 773 772 768 761 759 759 756 757 757 756 768 790 797 793 794 797 799 801 803 806 811 813 815 826 838 839 835 835 837 838 841 842 843 845 847 847 848 849 849 850 850 851 852 853 853 854 854 855 855 855 856 856 855 855 854 854 854 854 854 854 853 853 853 853 852 851 850 850 849 848 847 846 845 844 843 841 840 838
732 738 740 744 753 758 759 764 769 769 764 757 755 758 756 754 756 757 763 778 790 792 793 797 800 802 804 807 810 811 813 822 831 833 832 834 837 839 841 842 844 845 846 848 849 849 850 851 851 853 853 854 855 855 856 856 856 856 857 856 856 856 855 855 856 855 855 855 854 854 854 853 853 852 851 851 850 850 849 848 846 845 844 842 841 839
740 746 751 750 752 755 759 765 770 767 761 755 753 754 753 753 759 763 762 768 781 790 793 796 799 802 805 808 811 813 816 820 824 828 831 834 837 839 841 843 844 845 846 848 849 849 851 851 852 854 854 855 856 856 856 857 857 857 857 857 857 857 856 857 857 856 856 856 855 855 854 854 853 853 852 852 852 851 850 849 848 846 845 843 842 840
741 744 748 750 753 755 757 764 771 768 758 752 751 752 752 757 764 766 764 768 778 785 790 795 798 802 805 808 812 816 820 823 826 829 831 834 836 839 841 843 844 846 847 848 849 850 851 852 853 854 855 856 857 857 857 858 857 858 858 858 858 858 858 858 858 857 857 857 856 855 855 854 854 854 853 853 853 852 851 850 849 847 845 844 842 841
740 743 749 752 753 754 758 766 770 765 755 750 752 755 756 760 766 768 770 776 781 783 789 795 798 801 806 810 814 817 820 824 828 830 832 835 837 839 841 843 844 846 847 848 850 851 852 853 854 855 856 857 857 858 858 858 858 858 859 859 859 859 859 858 858 858 857 857 857 856 855 855 855 854 854 854 853 852 852 851 850 848 846 845 843 842
739 742 748 754 755 753 757 763 761 756 751 749 752 758 761 762 765 768 771 777 783 786 790 794 798 802 806 810 814 817 820 824 828 831 833 835 837 839 841 843 844 846 847 849 850 851 853 854 855 856 857 857 858 859 859 859 859 859 859 859 860 859 859 859 859 858 858 858 857 857 856 856 856 855 855 854 853 853 852 851 850 849 847 846 844 842
741 739 740 751 757 755 755 758 757 754 753 752 754 759 763 765 768 770 771 776 783 788 790 794 798 803 806 809 813 817 821 824 828 831 833 835 837 839 840 842 844 846 847 849 850 852 854 855 856 857 857 858 859 860 860 860 860 860 860 860 861 860 860 860 859 859 859 859 858 857 857 856 856 856 855 855 854 854 853 852 851 849 848 847 845 843
742 739 738 747 755 754 755 758 758 756 757 757 758 761 764 766 770 773 775 779 783 787 791 794 798 802 805 808 812 817 821 824 827 831 832 833 836 838 840 842 845 846 847 849 850 853 854 855 856 857 858 859 860 860 860 860 860 860 861 861 861 861 861 861 861 860 860 860 859 858 858 857 857 857 856 855 855 854 853 853 851 850 849 847 845 844
743 739 741 747 752 755 760 763 760 760 762 761 762 764 766 768 772 775 778 782 784 788 792 795 799 803 806 809 812 816 821 824 826 829 831 833 836 839 841 842 844 845 847 849 851 853 854 856 857 857 858 859 860 860 861 861 861 861 862 862 862 862 862 862 862 861 861 861 860 859 859 858 858 857 857 856 855 855 854 853 852 850 849 848 847 845
741 738 744 751 754 757 763 763 760 762 764 763 764 768 769 771 775 777 780 783 786 789 794 797 801 804 807 810 813 816 820 824 826 828 830 834 837 838 840 842 844 845 847 849 851 853 855 856 857 858 859 860 860 861 861 861 861 862 862 862 863 863 863 863 863 863 862 862 861 861 860 859 859 858 857 856 856 855 854 853 852 851 850 849 848 847
736 741 747 753 758 762 763 762 761 764 768 768 768 770 772 774 777 780 783 786 789 792 796 799 803 805 807 811 814 816 820 824 826 827 831 834 836 837 839 842 844 846 848 849 851 853 855 856 857 858 859 860 861 861 862 862 863 863 863 863 864 863 863 863 863 863 863 863 862 862 861 860 860 859 858 857 856 855 855 854 853 852 851 850 849 848
740 750 752 756 763 766 763 760 760 764 770 772 771 772 775 776 778 782 786 789 792 795 798 801 805 808 809 812 815 817 819 823 825 828 831 833 835 837 840 842 845 847 848 849 851 853 855 856 857 858 860 861 861 862 862 863 863 863 863 864 864 864 864 864 864 863 863 863 863 862 861 861 860 859 859 858 857 856 855 854 853 853 852 851 850 849
743 749 750 753 759 761 758 757 758 762 768 771 771 774 777 778 781 785 788 791 794 797 799 802 805 808 811 814 816 817 819 822 825 828 830 833 835 838 841 843 846 847 848 850 852 854 855 857 858 859 860 861 862 862 863 863 863 863 864 864 864 864 864 864 864 864 864 864 863 862 862 861 860 860 859 858 858 857 856 855 854 854 853 852 851 850
Wind_Speed
6 5 7 7 6 7 9 9 9 11 13 12 7 8 10 8 9 8 10 14 13 9 8 8 8 6 12 13 13 15 14 13 14 13 13 12 11 10 9 9 9 9 9 11 15 19 19 17 16 15 15 17 15 14 14 13 11 13 13 12 11 10 8 6 5 3 3 2 2 1 1 3 4 5 6 4 4 6 6 7 8 10 13 15 15 16
6 7 7 6 7 7 9 11 11 13 14 13 6 5 8 8 10 11 11 17 13 8 7 9 10 10 15 14 13 15 15 12 12 13 13 13 11 9 11 12 11 9 9 11 15 19 22 21 22 22 21 21 19 18 18 18 18 16 15 13 12 10 8 6 5 4 4 4 3 3 2 1 1 3 3 3 4 5 6 7 7 8 12 15 16 16
7 7 7 7 7 8 10 11 13 14 12 10 7 4 6 6 9 8 11 19 12 6 7 9 12 10 14 15 13 15 14 11 12 13 12 11 11 10 11 11 11 10 9 10 11 14 18 20 22 23 22 22 21 22 22 21 21 20 17 15 13 12 10 8 7 5 4 4 4 3 3 2 2 3 3 3 3 4 6 8 8 8 9 14 15 16
7 5 8 9 9 11 12 12 13 13 10 7 6 4 5 8 8 4 11 20 14 5 9 13 12 7 10 14 14 13 12 12 13 14 12 10 10 11 11 10 10 10 10 9 10 11 14 18 20 20 20 21 21 23 23 22 22 22 20 18 16 14 12 11 10 8 6 5 5 4 3 2 2 3 4 5 4 3 4 6 7 7 8 10 13 14
7 6 9 11 12 14 13 12 12 10 7 7 8 7 7 11 8 4 10 16 11 6 13 16 9 3 5 10 11 10 10 12 11 13 13 11 10 11 11 11 10 10 9 9 9 9 12 16 17 18 19 20 21 22 22 22 22 21 20 18 17 15 13 13 13 11 10 8 7 7 5 4 3 4 5 6 7 6 5 6 6 6 6 8 10 12
7 9 12 13 13 14 13 11 11 9 6 6 8 10 12 14 9 4 11 12 7 4 10 13 6 2 1 7 9 7 9 10 8 10 12 10 10 11 11 10 10 10 9 9 9 9 11 14 16 18 19 19 21 21 21 21 21 21 19 17 17 16 15 14 14 14 13 12 10 10 10 8 7 6 6 7 8 8 7 7 8 8 7 8 9 11
7 11 15 15 14 14 14 11 11 10 6 5 7 10 14 15 11 4 7 10 5 5 9 10 8 2 2 4 7 8 10 10 8 9 10 9 9 9 9 8 8 9 8 8 9 10 12 14 15 17 18 19 20 20 20 20 20 20 18 16 16 15 15 14 14 14 15 14 13 13 13 11 11 11 9 9 10 9 9 9 9 8 8 10 10 11
8 12 15 17 14 12 11 9 10 10 6 4 6 10 12 11 10 8 4 8 5 7 9 9 10 5 3 5 8 10 11 10 8 8 7 8 9 9 9 8 9 9 8 8 8 9 12 14 15 16 17 19 20 20 19 19 19 19 18 16 14 13 14 14 15 15 16 17 16 16 16 14 15 14 14 13 12 12 12 12 11 10 10 10 11 12
10 13 13 16 14 10 9 9 10 10 7 5 7 10 8 7 9 8 4 6 6 7 7 8 9 6 3 6 9 10 11 9 8 8 7 8 9 9 9 9 10 9 9 9 8 9 12 15 15 16 17 19 20 19 17 16 17 18 18 17 15 14 14 14 15 16 17 17 16 18 18 17 17 16 15 14 14 15 15 15 14 13 14 12 11 12
10 12 11 14 12 9 9 10 12 12 7 5 9 10 6 7 7 4 3 2 5 6 7 9 10 6 1 5 8 8 8 9 9 8 7 8 9 9 9 10 10 9 8 8 8 11 14 15 16 16 18 19 18 16 14 13 14 15 15 15 16 16 14 13 15 17 18 17 17 18 19 19 19 18 17 16 18 19 18 18 18 16 16 15 12 13
9 11 10 10 10 9 9 10 12 13 7 7 10 9 6 7 3 1 1 3 4 3 6 10 12 7 2 5 7 5 6 11 11 9 9 9 11 10 8 10 10 8 8 7 8 10 13 15 16 17 17 16 14 13 12 11 12 13 13 13 14 15 14 13 14 15 17 19 19 19 19 19 20 19 18 19 19 20 19 19 20 20 20 18 16 16
11 12 10 7 8 11 10 9 11 12 8 7 8 5 3 6 1 2 2 4 3 5 5 8 9 7 4 5 6 5 8 13 13 12 14 13 11 9 8 10 10 9 8 7 7 8 10 13 15 16 16 14 12 12 12 12 12 13 13 12 11 12 13 13 13 14 16 18 19 19 20 19 19 18 18 19 18 18 18 18 20 21 22 22 21 20
9 9 11 8 7 11 10 7 8 10 8 7 6 5 4 3 1 3 2 2 3 5 5 7 5 5 2 2 3 9 13 13 11 12 16 15 12 9 9 10 9 8 8 7 6 6 7 10 12 14 13 12 11 13 13 13 12 13 13 13 13 13 13 12 13 15 17 17 17 17 19 20 19 19 19 18 18 18 18 18 20 21 21 22 23 23
6 6 12 12 7 9 12 7 6 7 6 8 7 5 6 3 3 4 3 3 2 2 6 8 6 3 0 3 4 10 14 13 12 12 13 13 12 10 10 10 9 9 9 7 6 6 7 10 12 13 12 11 10 10 11 11 11 11 13 15 16 16 15 13 14 16 18 19 19 16 16 19 19 21 19 18 19 19 18 19 20 21 21 21 23 24
7 6 10 13 6 8 12 8 7 7 5 7 6 5 4 4 4 4 3 4 2 2 4 4 4 1 2 2 5 9 12 12 13 13 12 11 11 10 9 10 10 9 8 7 6 6 8 11 13 12 11 9 8 7 8 9 9 10 10 13 16 17 17 16 14 16 19 22 23 20 18 18 18 21 20 18 18 18 18 19 20 21 22 21 23 24
8 5 7 12 7 8 11 6 6 7 4 4 4 5 6 5 5 3 4 5 4 2 2 2 3 2 3 5 7 10 11 12 14 14 13 12 11 10 9 8 8 8 7 7 5 6 9 12 13 11 8 5 6 7 8 8 8 11 12 13 15 17 20 19 16 18 21 24 25 24 23 21 21 22 21 19 20 19 18 19 19 21 22 22 23 23
6 4 6 10 6 8 12 6 4 5 4 4 4 5 6 5 5 4 2 3 5 3 0 0 3 5 4 4 7 10 12 13 15 14 13 12 11 10 8 7 7 7 6 6 5 6 7 9 10 9 6 3 4 7 9 9 10 13 16 15 15 19 21 20 20 22 24 25 25 25 24 24 24 24 22 21 22 22 21 20 21 22 23 23 24 24
6 2 7 12 8 5 8 4 5 5 4 5 6 5 3 4 4 5 2 1 3 3 1 2 5 7 4 2 6 11 13 13 14 14 13 12 11 10 8 7 7 6 7 6 6 6 6 7 9 9 6 4 5 8 12 14 15 16 18 18 18 20 22 21 22 24 25 25 25 25 24 24 25 26 24 23 24 25 23 22 23 23 24 25 25 25
6 2 4 12 11 6 7 4 7 10 9 6 6 5 5 5 5 3 3 3 4 4 2 4 6 6 4 4 8 12 13 13 13 14 14 12 11 10 8 8 7 7 6 6 5 4 4 6 9 9 7 7 10 14 16 17 17 17 18 20 20 21 21 22 23 25 25 25 25 24 24 25 26 26 25 25 26 25 25 25 24 25 26 25 25 25
5 4 1 7 11 8 6 5 7 8 10 7 4 6 6 5 4 4 4 4 5 4 3 5 5 3 2 5 11 12 11 13 14 13 12 12 11 10 8 7 6 6 5 5 3 3 5 6 8 10 11 13 16 18 17 15 16 16 17 20 20 20 21 22 24 24 24 25 25 25 25 26 26 26 25 26 27 26 26 27 26 27 27 26 26 26
4 4 1 5 11 9 5 6 8 6 5 5 3 5 5 3 4 4 3 3 5 4 4 4 3 3 1 2 9 13 12 13 13 12 11 11 11 10 9 7 5 5 5 4 3 2 3 8 12 15 15 16 16 17 16 14 14 16 17 19 19 20 21 22 24 24 24 25 26 26 26 26 26 26 26 27 29 28 28 29 29 28 27 27 28 27
3 4 2 4 8 8 5 7 10 7 6 5 4 5 6 5 5 4 3 3 4 4 5 5 3 2 1 2 2 9 12 11 12 13 11 11 12 10 8 7 5 5 4 4 2 1 5 11 15 16 15 15 16 16 15 15 16 17 17 18 19 21 21 21 23 25 25 26 26 26 26 27 28 28 28 29 30 30 29 30 30 28 28 28 29 28
4 5 4 3 4 6 6 9 13 11 8 6 6 5 5 5 6 5 3 4 3 3 4 4 3 2 1 3 2 5 11 12 11 12 12 11 11 10 8 7 6 5 4 3 3 5 8 12 14 14 14 14 14 14 14 16 18 18 17 18 20 23 23 22 24 25 26 26 26 26 26 27 28 29 29 30 31 31 30 30 30 29 29 29 29 29
3 4 4 2 2 4 6 8 12 11 8 5 6 6 5 5 6 6 4 3 3 3 4 3 2 1 3 3 3 9 13 13 11 12 13 11 9 8 8 7 6 5 4 4 4 7 11 12 11 11 12 13 14 14 15 18 19 19 20 21 23 24 24 24 25 26 26 26 26 27 28 28 29 30 29 30 31 31 30 30 29 29 29 30 29 29
4 3 4 4 2 4 6 6 7 9 8 3 3 5 5 6 8 6 4 2 2 2 7 5 1 1 2 1 9 13 14 14 12 12 12 11 9 7 7 6 5 5 4 5 6 8 11 13 13 13 14 16 17 17 18 19 18 18 20 23 24 25 25 26 26 27 27 27 27 28 29 29 30 31 30 30 31 31 30 30 30 29 29 30 30 30
4 3 4 5 5 6 7 5 5 6 5 3 2 5 6 8 9 6 4 4 3 2 7 6 4 3 2 7 12 13 14 14 13 12 11 10 9 8 7 5 5 4 5 8 8 8 9 12 13 14 15 16 16 17 19 17 16 18 20 23 24 24 25 26 26 26 26 26 27 28 29 29 30 31 31 30 30 30 30 30 30 29 29 29 30 30
2 3 4 6 5 5 6 3 3 6 5 6 7 6 7 8 8 7 5 4 5 3 4 4 12 12 8 10 13 12 13 14 12 12 11 9 9 8 7 6 5 5 6 7 8 8 9 10 11 14 15 14 16 17 17 16 17 20 22 23 23 23 24 24 24 24 24 25 26 27 28 29 29 29 30 29 29 30 30 30 29 29 28 28 30 31
3 2 5 6 2 2 2 2 2 4 8 9 8 6 5 7 8 6 5 5 8 5 2 5 17 18 12 13 15 13 13 13 11 12 11 10 10 9 7 7 7 7 7 7 7 8 8 7 9 13 15 15 17 17 17 18 19 20 20 21 22 22 21 21 21 21 23 24 26 28 28 28 28 28 27 27 28 29 29 30 30 29 28 27 29 31
5 2 4 5 3 3 3 5 6 3 3 9 11 10 6 5 6 5 3 5 8 6 6 12 17 16 14 14 15 14 13 12 12 11 10 10 11 10 10 10 9 8 9 8 8 8 7 6 9 13 14 14 16 16 16 17 18 18 19 19 20 20 19 19 20 21 24 26 27 28 28 27 27 27 27 27 28 28 29 30 31 30 29 28 29 29
5 1 1 5 5 4 5 5 7 8 6 3 3 4 1 6 7 7 5 7 10 9 12 17 15 11 11 12 12 12 11 11 11 11 10 10 11 11 11 10 10 9 9 9 9 7 6 7 10 11 11 11 12 13 15 16 15 16 17 17 18 20 19 19 21 23 26 27 27 27 27 26 25 26 27 28 28 27 27 28 29 30 30 29 29 29
6 1 1 6 5 4 6 7 8 10 11 12 11 9 9 13 13 11 10 12 15 13 13 17 13 8 7 10 12 11 10 12 12 12 11 10 10 12 11 10 10 10 9 9 8 7 6 8 10 10 9 10 11 13 15 16 17 17 18 16 16 18 20 21 23 25 27 27 27 26 26 26 26 25 25 28 28 27 26 26 27 28 28 29 30 30
6 1 2 5 5 3 5 5 5 8 12 13 12 12 9 8 9 8 6 6 12 16 16 13 9 5 7 10 12 11 12 13 13 13 11 9 10 12 11 10 10 10 9 9 8 7 6 7 9 9 9 10 12 14 15 16 18 19 20 19 17 17 20 23 24 25 26 27 27 26 26 27 27 26 25 26 29 29 27 26 25 25 26 28 30 30
5 4 2 5 5 1 5 4 1 3 6 6 5 6 5 4 10 11 9 8 12 17 14 9 7 8 11 13 13 12 13 13 12 11 10 10 12 12 10 10 10 9 9 8 8 7 6 8 9 9 8 10 12 14 15 16 18 18 18 18 19 19 20 21 22 23 25 27 27 27 27 27 28 28 25 25 27 29 29 28 27 25 24 27 30 30
5 6 3 3 4 1 5 6 6 2 2 1 4 3 0 6 14 14 10 7 7 8 7 7 11 14 13 13 14 13 11 10 9 8 7 9 11 10 10 10 10 9 9 8 7 6 8 9 9 7 7 10 13 14 15 17 17 16 15 16 18 20 20 20 21 22 25 26 27 27 27 27 28 28 26 24 26 29 29 30 30 26 23 26 30 31
6 6 3 2 4 1 3 5 4 1 2 3 4 4 9 13 18 19 13 8 6 10 14 15 16 16 14 12 12 11 9 8 9 8 9 10 10 10 11 10 10 9 8 7 6 7 9 9 7 7 10 13 13 13 16 16 14 13 14 16 17 18 19 21 22 22 24 26 27 27 27 27 27 28 27 25 26 28 28 29 31 29 25 25 29 30
7 6 4 3 3 2 2 4 3 2 2 2 3 7 10 10 13 15 12 8 4 9 16 17 15 15 14 13 12 10 9 10 10 9 9 10 10 10 9 9 9 9 8 8 8 10 10 8 9 11 13 13 13 13 14 14 12 12 16 18 18 17 19 23 22 20 22 25 26 26 26 27 27 27 26 26 27 27 27 27 28 29 26 25 27 28
6 6 5 4 2 3 3 2 1 0 1 2 2 2 3 3 4 6 6 4 2 6 11 17 17 15 14 14 12 11 11 12 10 7 6 9 11 10 10 10 11 10 11 12 13 13 11 9 12 14 14 15 16 15 15 15 15 16 19 18 18 18 20 21 21 19 21 23 24 24 24 24 24 24 24 24 25 26 26 25 25 26 26 25 25 27
7 4 6 5 2 3 5 3 1 1 3 4 5 3 1 4 6 7 6 4 5 6 9 15 17 17 16 15 14 13 12 11 7 4 5 8 9 10 11 13 15 15 14 14 14 13 10 10 14 16 17 19 19 18 18 18 18 19 19 17 17 18 18 18 18 18 20 22 22 22 21 21 22 23 22 22 23 24 25 25 24 23 24 24 24 25
9 5 4 7 4 3 4 3 3 2 2 5 6 4 4 6 8 7 5 2 6 9 10 13 16 16 16 15 15 14 12 10 7 4 5 8 9 10 10 11 14 16 14 14 14 12 10 13 18 19 18 18 18 17 17 16 17 18 17 16 17 18 18 19 19 19 19 19 20 20 20 20 20 21 20 20 20 22 24 25 25 22 22 22 23 24
6 6 4 5 5 5 4 2 2 1 2 4 7 6 6 5 4 5 2 4 9 12 12 14 16 15 14 14 13 10 9 9 9 8 8 10 11 12 11 11 13 16 16 16 15 13 13 17 19 18 17 16 15 13 14 15 16 16 15 15 15 16 18 19 19 18 17 16 16 17 17 18 18 19 19 19 18 20 23 24 24 23 22 20 21 23
3 4 3 4 5 5 4 2 1 1 3 3 6 6 5 4 5 3 4 6 12 15 13 14 15 14 14 13 9 5 4 6 9 10 11 11 11 12 13 14 16 16 17 17 16 14 16 17 17 17 17 16 13 13 14 16 15 14 14 15 16 16 17 17 15 14 14 14 15 14 14 16 18 18 18 19 17 18 22 24 22 22 23 21 20 21
1 2 2 2 3 4 3 2 2 1 3 2 5 4 5 5 1 3 3 7 15 17 14 13 14 14 13 11 6 6 8 10 11 11 11 11 10 11 13 15 16 15 13 13 16 17 17 17 17 17 17 15 14 14 14 13 12 12 14 15 15 15 16 15 14 15 16 15 16 15 12 12 16 18 18 18 17 17 20 23 22 22 23 22 21 21
2 2 2 2 2 3 3 3 2 2 3 3 4 4 3 2 4 4 6 10 13 14 14 13 13 12 12 9 8 12 15 14 12 11 11 11 10 11 14 16 16 15 13 13 18 19 16 16 17 17 16 15 14 14 13 13 15 16 16 16 15 15 15 15 14 15 16 15 16 17 14 10 13 18 17 16 16 16 18 21 22 22 23 23 22 22
1 2 2 1 0 2 3 2 3 2 2 3 4 3 2 3 5 7 10 10 10 10 11 11 11 11 11 11 12 15 15 14 13 12 12 11 10 11 14 16 16 16 14 14 19 19 16 17 17 16 15 14 13 13 13 15 17 17 16 15 12 13 16 16 14 13 15 17 16 16 15 11 11 16 17 15 14 15 16 19 21 22 23 24 22 22
2 2 5 3 0 2 4 3 2 1 4 5 5 5 7 8 7 7 10 11 9 9 9 9 11 13 13 14 15 14 13 14 14 12 11 11 10 12 14 15 15 15 14 17 21 20 17 17 16 15 14 14 13 13 13 14 14 14 14 14 12 12 15 16 15 13 14 19 18 16 15 13 10 13 16 14 13 14 15 17 20 20 21 23 23 21
1 2 5 4 4 5 5 3 3 6 7 7 8 8 9 10 9 8 10 10 9 9 8 9 12 14 14 15 15 13 12 14 13 12 11 11 11 13 15 15 14 15 18 22 22 20 18 17 16 15 13 12 12 11 10 11 13 14 14 14 12 12 14 15 15 13 14 19 19 18 17 14 10 10 14 13 12 13 13 15 17 18 19 21 22 21
2 1 4 4 5 4 3 2 5 9 8 8 9 9 10 11 10 8 8 8 9 10 10 11 13 14 14 15 15 14 14 14 13 12 10 8 9 13 14 14 15 19 23 23 21 20 19 17 16 15 13 12 11 10 10 12 13 13 13 13 12 11 13 15 16 14 13 16 18 19 20 18 11 10 13 13 11 11 12 13 14 16 17 19 20 21
2 3 5 4 3 4 4 5 8 10 9 7 8 8 8 10 10 9 9 10 11 12 13 14 15 13 12 12 14 15 15 13 12 12 10 7 10 14 15 16 18 20 21 22 22 22 19 17 16 16 14 13 11 11 13 15 14 12 13 14 11 9 11 15 16 15 14 15 17 19 20 19 16 13 13 13 11 11 11 11 12 14 15 17 18 20
3 4 5 5 6 6 6 8 10 10 9 7 7 7 8 9 11 12 12 12 13 14 14 15 14 13 13 14 14 14 15 14 13 12 9 8 11 15 18 19 19 17 18 22 23 22 19 17 17 16 15 13 11 11 13 13 11 11 13 13 10 9 10 13 16 16 15 14 16 17 16 17 18 17 16 13 11 11 12 11 11 11 13 14 16 17
5 5 5 7 7 4 5 7 9 8 7 7 8 10 10 10 12 13 12 12 14 14 13 13 13 13 16 18 17 15 13 13 13 13 11 11 14 18 21 21 18 16 20 24 24 21 18 17 16 15 14 13 12 12 11 10 9 10 12 11 10 10 11 13 15 16 15 15 16 16 13 13 14 17 17 14 12 13 13 11 10 10 11 13 13 14
4 7 7 6 5 5 7 8 7 6 7 8 10 12 11 10 11 12 12 12 13 13 13 13 13 13 13 16 20 19 14 13 15 16 14 15 20 23 23 21 19 19 22 24 22 19 18 17 15 15 15 14 12 11 9 9 10 11 12 11 10 10 11 12 14 15 15 16 17 16 15 13 12 14 16 15 13 15 17 15 12 11 11 12 13 12
Wind_Direction
195 212 211 201 191 181 203 220 230 233 235 236 202 185 207 215 247 235 170 176 179 175 199 169 148 101 73 56 52 71 84 94 96 94 96 96 94 93 89 86 81 81 78 70 64 61 66 71 72 81 90 90 89 92 92 90 102 110 106 106 102 94 94 101 105 103 100 104 95 70 227 217 220 243 256 250 250 256 238 220 210 210 213 212 213 216
195 214 214 188 183 192 207 217 235 243 242 249 245 213 219 208 234 237 169 174 181 157 181 160 120 89 81 72 61 70 71 69 84 92 92 93 94 92 93 94 89 85 77 66 62 62 62 60 61 65 69 71 70 73 76 76 79 84 86 87 86 85 86 87 85 76 68 56 58 73 63 31 235 236 247 252 256 257 249 236 223 216 212 213 217 220
207 217 202 184 189 210 222 215 226 243 244 248 260 259 255 229 232 240 168 172 180 156 166 133 100 88 87 86 73 71 73 68 73 81 85 92 96 96 96 95 90 83 74 66 60 59 59 58 58 59 59 60 59 60 62 62 64 67 70 72 72 74 70 62 57 52 57 46 39 55 36 350 296 285 303 304 272 246 245 248 247 242 225 218 223 227
205 205 188 191 200 213 227 220 218 238 245 242 244 241 259 247 235 227 164 170 179 164 136 114 97 89 87 89 85 79 83 82 76 78 78 79 86 93 94 89 86 85 79 72 63 57 59 58 57 56 55 55 54 54 53 53 55 57 61 64 65 68 64 57 50 39 40 43 38 37 17 336 312 310 316 320 316 294 272 267 265 263 248 236 239 242
198 179 184 200 205 211 223 224 215 224 240 241 235 228 247 254 240 182 158 166 169 129 112 107 86 48 79 92 97 96 94 90 84 86 83 78 81 82 82 82 80 79 78 77 71 59 58 58 57 56 56 55 52 50 48 47 48 48 53 56 54 56 57 54 50 45 42 42 37 29 16 2 345 326 319 323 329 332 321 306 302 294 277 262 261 260
201 181 187 205 210 211 219 225 217 210 225 243 237 232 240 254 260 171 153 158 153 129 125 119 93 356 81 101 108 114 104 96 87 89 91 88 87 83 82 82 79 77 74 75 74 67 62 60 58 55 54 54 51 48 48 48 48 47 48 52 51 48 48 49 47 46 47 45 39 30 23 19 9 349 337 339 341 338 328 321 323 319 307 299 293 284
209 191 186 201 208 210 215 225 223 206 203 235 235 232 240 250 272 286 164 163 157 165 159 138 120 144 210 125 127 123 108 105 97 93 95 92 90 91 92 90 86 83 78 75 73 70 66 60 58 54 50 51 50 48 49 47 48 47 44 48 51 46 43 43 42 42 45 43 39 34 30 29 23 13 6 3 359 353 344 336 329 321 310 303 300 295
206 204 188 193 205 210 211 219 220 208 197 227 239 233 239 245 263 285 223 180 169 154 159 145 122 127 204 178 149 130 116 113 107 101 100 98 97 98 97 93 88 87 85 82 74 69 67 62 59 55 50 51 50 48 48 44 45 46 42 39 41 42 39 38 39 41 43 44 41 37 35 33 27 21 15 11 9 6 1 356 346 335 329 317 307 302
196 216 195 186 200 210 208 211 213 213 208 218 246 243 239 237 248 272 250 179 151 142 162 160 127 116 187 170 144 132 126 127 126 122 119 113 110 106 102 96 87 85 86 83 79 75 72 67 63 60 55 53 50 47 43 40 41 43 41 38 36 35 32 32 37 40 41 42 41 39 36 31 27 23 20 17 14 10 7 7 2 353 349 343 331 321
192 218 207 185 197 208 204 205 208 218 214 202 243 256 256 242 235 251 254 146 114 146 182 179 151 125 158 164 148 143 145 150 145 132 129 127 121 115 107 102 94 85 80 77 78 77 76 74 67 61 57 54 52 49 46 44 43 41 39 41 40 33 29 32 37 39 40 40 40 38 34 29 26 23 21 21 19 14 10 10 8 3 359 354 345 337
199 207 217 198 193 197 201 203 208 220 202 172 229 255 273 260 232 127 246 69 90 191 210 190 171 138 117 191 177 167 156 153 146 134 138 135 126 122 113 109 103 92 84 76 75 75 78 79 71 62 56 52 53 51 48 47 40 38 42 45 45 39 37 40 38 37 38 37 35 33 30 28 26 22 21 21 17 13 11 7 5 6 5 359 352 347
213 194 209 214 190 184 195 202 205 218 200 175 214 225 254 277 320 68 343 65 118 243 241 199 174 118 104 211 196 149 127 136 141 141 142 139 129 122 113 108 105 98 93 82 73 68 71 75 69 63 55 47 49 48 43 42 38 40 43 43 44 45 46 48 44 41 38 35 33 33 32 29 27 25 24 21 14 11 9 3 1 5 5 1 359 357
227 198 197 213 208 185 188 195 196 213 207 194 207 169 173 270 218 197 257 115 189 238 215 182 144 88 83 260 163 129 126 131 137 137 139 139 131 121 113 108 104 102 98 89 83 73 66 69 65 60 52 39 43 50 45 41 39 40 40 38 40 44 45 48 51 49 45 39 35 36 37 34 33 32 28 23 16 10 6 2 2 4 2 359 358 357
231 230 202 205 223 195 188 184 184 205 200 199 207 155 150 177 183 209 202 152 215 235 186 160 110 84 207 342 47 113 123 126 126 127 132 133 125 117 112 107 104 101 98 90 82 76 71 72 69 61 46 32 39 56 56 48 40 38 41 41 40 41 44 53 61 55 48 44 40 36 34 35 41 38 31 25 17 9 5 5 6 5 1 357 355 353
201 234 204 196 207 185 184 180 171 177 179 197 199 151 163 181 166 194 172 149 214 226 172 133 93 89 158 68 59 97 111 116 119 122 123 119 115 110 103 101 100 95 93 89 80 79 77 77 76 66 51 37 33 47 63 60 43 31 37 44 43 41 43 51 62 56 49 48 45 41 37 39 43 38 33 30 24 16 12 10 8 4 2 358 355 353
202 231 195 183 189 179 181 187 165 161 175 200 178 160 205 205 141 158 178 150 152 154 88 56 70 63 77 88 87 97 107 114 117 119 120 115 110 106 99 95 96 91 90 89 84 80 77 82 86 81 73 53 28 42 62 60 37 27 35 47 47 42 40 44 54 54 48 47 46 42 40 41 39 32 31 34 29 24 21 17 12 8 5 3 0 358
199 236 197 173 184 190 183 192 184 165 171 184 193 197 211 199 136 122 182 131 99 102 117 336 109 100 90 94 108 114 115 120 124 124 123 116 108 104 100 99 100 100 99 94 89 82 79 94 109 111 111 97 55 63 67 50 37 38 42 45 46 43 42 47 55 54 48 46 44 40 38 38 35 31 31 33 29 25 23 20 17 14 11 8 5 2
172 225 213 176 166 172 163 189 260 247 206 173 194 209 200 210 180 117 113 139 113 124 155 157 143 143 154 154 142 139 133 135 137 130 124 118 113 110 108 109 106 101 101 92 87 93 99 117 128 131 129 115 88 75 62 49 46 47 45 44 46 45 42 46 53 53 48 46 43 39 37 36 35 33 32 31 28 26 24 21 19 16 14 11 8 6
165 160 220 174 156 143 138 169 257 258 249 211 180 179 158 191 215 148 131 169 158 150 117 126 152 168 176 164 159 157 150 148 144 135 132 127 123 121 114 111 104 95 96 90 89 116 142 139 135 133 118 88 76 67 58 52 49 48 45 45 47 46 43 48 51 49 47 46 43 40 38 37 36 35 33 31 29 28 26 24 21 17 16 13 10 7
161 134 191 173 157 152 153 177 219 242 250 240 192 183 177 172 184 171 169 169 159 154 128 135 168 208 213 166 165 166 159 153 147 139 136 130 125 122 115 111 108 101 100 104 127 174 170 136 108 95 80 71 73 69 61 55 52 51 48 46 47 44 45 51 50 47 47 46 44 42 40 39 38 35 35 34 30 28 27 26 23 19 18 15 12 9
136 121 160 194 169 167 178 194 204 207 219 236 219 191 192 176 161 173 201 179 150 144 134 139 181 229 265 166 165 162 158 153 146 136 130 127 124 119 114 113 111 109 115 138 170 192 139 108 89 80 74 70 74 73 66 58 54 55 52 49 48 44 45 50 49 48 49 47 45 44 41 40 37 35 36 35 32 30 29 27 25 22 20 18 15 12
143 134 172 211 181 180 184 182 196 209 201 206 222 201 185 165 148 157 240 230 150 139 147 147 164 198 274 341 180 160 151 141 133 126 121 120 118 113 112 117 115 120 137 153 164 98 88 94 90 85 78 73 74 75 69 59 53 55 54 52 49 44 44 49 50 50 49 46 44 44 41 39 38 36 36 35 32 32 31 28 26 24 23 20 17 14
128 123 167 228 202 181 177 176 188 212 228 222 231 215 172 159 149 143 196 224 177 131 117 113 122 150 270 307 271 147 130 121 119 118 116 114 113 113 120 123 118 126 144 142 131 110 95 93 97 98 93 87 82 80 75 64 55 51 49 51 50 45 43 49 52 51 48 45 44 42 40 40 39 37 37 36 34 32 31 28 27 26 24 22 19 16
129 118 157 206 235 178 183 187 184 201 229 240 238 216 172 170 170 153 161 188 185 155 116 82 92 150 292 299 128 120 114 113 115 115 114 115 116 122 128 124 123 138 151 139 120 101 82 73 78 91 91 82 72 67 68 63 54 48 48 52 51 45 45 50 52 50 46 44 43 40 39 39 37 36 37 37 35 33 31 28 27 27 25 23 20 18
183 148 130 146 180 171 180 196 187 198 216 223 248 236 200 170 163 167 184 206 267 182 132 119 124 199 268 117 118 120 117 115 117 118 119 122 125 129 129 126 139 150 135 99 84 77 70 60 58 68 73 68 61 57 59 59 53 50 52 56 53 46 47 50 49 48 46 43 42 39 37 38 36 34 34 36 34 33 32 30 28 27 25 24 22 19
175 150 113 135 162 173 182 203 192 184 207 231 257 252 227 187 164 157 161 186 237 157 116 123 143 154 156 120 117 121 121 119 122 123 122 122 125 128 130 136 143 130 102 88 81 74 71 65 61 66 69 68 64 60 60 58 52 51 56 59 55 49 49 49 48 47 45 43 42 39 38 37 35 34 33 33 33 32 32 30 28 27 26 25 23 20
123 139 133 136 157 181 185 215 180 148 174 223 240 250 237 210 180 140 120 178 196 122 74 135 145 142 150 139 127 126 126 124 128 128 125 125 127 130 137 136 124 109 97 91 85 77 73 67 62 63 63 63 66 64 59 53 51 54 59 62 59 53 50 49 48 48 47 46 45 41 39 38 36 35 34 34 34 33 32 30 27 27 26 25 24 21
82 133 160 148 137 164 139 5 358 158 184 205 228 256 248 220 197 161 139 163 158 123 39 166 146 141 154 152 140 137 135 131 134 134 132 133 136 141 144 134 123 116 106 95 88 81 76 69 63 61 56 55 63 64 57 54 56 58 61 65 63 57 52 51 52 53 51 50 49 45 42 39 37 35 35 36 36 34 32 31 28 27 25 24 23 20
105 146 182 150 87 27 9 3 15 27 194 194 206 229 240 223 196 171 156 159 154 150 166 166 153 144 149 151 142 139 138 135 134 133 132 139 145 149 143 134 126 118 108 100 93 86 80 72 66 62 56 56 63 64 59 58 63 63 63 69 67 59 56 56 56 56 54 52 51 48 43 40 39 38 36 36 35 34 33 32 30 29 27 25 22 19
97 88 168 115 79 14 346 360 37 47 43 80 185 232 135 96 102 100 87 90 94 102 133 142 138 127 133 138 133 131 130 128 128 128 134 148 152 144 136 128 122 113 108 103 97 95 92 84 78 71 63 60 64 66 62 58 60 63 63 71 72 62 57 57 56 57 56 53 52 49 44 41 40 40 40 39 35 33 32 31 30 30 29 26 23 20
97 11 312 93 72 2 6 25 56 74 69 59 40 27 60 82 85 90 97 90 84 87 109 119 115 106 116 124 122 124 125 127 131 135 145 157 150 136 129 124 121 117 113 109 104 101 95 89 87 82 69 59 59 67 67 58 56 58 55 59 70 67 60 58 59 58 57 55 52 47 43 40 39 40 43 42 38 35 32 30 30 30 31 29 26 23
110 63 338 76 81 1 15 47 86 90 78 65 42 19 30 68 85 88 82 87 110 119 117 116 123 136 138 129 125 129 132 134 138 143 152 155 138 129 128 125 122 117 111 109 103 98 93 88 87 82 75 68 63 67 70 63 59 58 53 51 59 64 62 61 61 61 59 56 51 45 41 39 38 39 42 44 42 37 33 30 28 30 33 31 26 24
101 106 62 80 107 325 342 5 26 69 67 55 15 342 348 70 91 77 51 61 114 130 134 147 158 145 139 137 134 138 142 142 144 150 155 146 132 128 127 121 114 108 106 103 100 100 103 102 100 98 96 88 75 70 71 69 64 61 57 55 58 60 60 60 61 64 63 59 53 46 42 41 39 37 40 45 43 40 36 31 28 28 33 31 26 24
78 102 96 65 108 247 321 6 21 34 104 303 295 296 63 102 96 84 64 62 91 107 110 124 132 133 137 141 139 143 146 142 139 139 136 131 127 124 120 113 108 105 101 99 103 110 113 116 121 122 106 89 80 75 75 73 69 66 63 63 64 62 59 58 61 65 66 61 56 50 45 43 41 38 39 44 43 40 38 35 31 30 32 32 27 25
95 94 78 52 96 103 341 42 59 217 229 295 323 69 94 98 95 88 71 48 71 102 106 111 126 135 137 135 134 135 129 113 104 102 106 111 115 116 116 113 111 110 107 112 123 120 114 115 114 100 91 87 83 83 82 78 75 73 68 63 64 64 62 61 59 63 68 64 58 54 48 44 42 40 41 44 41 38 38 37 36 33 31 31 28 25
117 110 88 68 93 91 47 76 127 219 260 343 38 87 101 105 99 89 69 37 51 113 120 123 130 134 132 131 131 124 111 98 85 77 89 101 105 108 112 115 116 117 125 135 134 124 119 114 97 87 87 88 83 80 85 83 75 73 70 62 56 58 65 63 56 60 70 67 60 57 52 47 44 42 44 46 42 39 36 36 38 36 33 33 30 26
102 120 113 78 60 101 103 84 67 359 235 164 126 128 141 143 129 110 93 82 110 127 130 133 134 135 135 132 127 121 112 101 87 70 76 92 99 103 108 115 119 121 128 128 121 119 121 113 99 89 81 79 76 73 77 77 70 70 71 63 54 56 66 66 56 58 72 71 63 60 57 51 47 45 47 48 45 42 38 35 36 36 35 35 31 27
51 89 130 115 61 84 102 98 112 169 223 198 192 219 170 120 130 123 104 116 148 148 144 140 138 140 140 136 133 130 120 109 106 110 104 101 103 107 111 116 121 128 134 130 122 123 125 111 102 92 79 74 73 70 70 69 67 68 67 62 56 54 60 64 56 59 74 73 63 60 57 53 49 47 47 48 46 42 38 36 35 34 35 36 33 29
35 29 92 108 103 117 118 130 166 185 240 204 182 174 141 142 144 119 86 126 159 151 146 141 140 144 145 142 142 142 138 133 139 154 136 122 119 122 125 128 132 138 138 128 125 130 124 104 96 90 81 77 74 73 73 71 69 67 61 57 57 53 54 57 53 57 71 71 62 59 57 54 50 47 46 48 47 40 36 36 35 32 33 34 32 30
41 29 48 103 131 146 130 119 157 206 254 198 160 148 158 163 130 100 123 208 166 151 149 146 146 149 146 144 147 151 152 150 152 154 145 135 132 136 140 137 133 131 128 128 135 134 116 102 98 94 89 85 82 80 79 78 77 72 62 53 50 51 56 56 50 52 62 64 61 62 60 54 50 48 46 46 49 43 35 34 35 33 30 30 30 30
69 73 91 125 135 134 124 110 119 262 258 181 149 151 151 110 76 109 207 192 152 146 151 150 148 148 146 147 150 145 120 122 133 140 139 134 134 138 139 135 133 135 140 147 146 127 109 107 109 107 101 94 87 81 80 81 80 78 73 61 46 45 58 61 52 51 58 62 63 65 64 56 48 47 48 47 49 46 38 34 35 34 31 29 27 27
122 120 117 118 122 124 118 99 87 312 277 189 138 123 103 90 113 219 196 143 141 145 150 148 146 146 146 144 133 116 115 120 130 136 134 132 135 138 138 137 140 149 158 148 128 114 108 107 108 108 105 98 89 82 81 80 76 77 80 67 44 41 58 63 51 48 54 60 58 56 61 60 48 45 50 50 47 46 39 35 37 38 35 32 29 27
162 127 92 103 124 112 91 90 125 191 226 174 126 95 80 135 195 179 120 119 135 143 144 144 144 145 143 135 123 126 129 131 136 135 130 132 140 147 150 151 153 162 166 141 122 118 113 102 98 100 102 100 94 89 83 74 70 73 74 64 44 39 53 61 57 53 48 45 45 46 48 57 52 49 52 49 45 45 39 35 38 40 37 35 34 30
222 153 142 170 221 113 125 164 213 215 173 129 125 133 133 138 155 144 129 129 138 141 142 143 143 141 137 131 130 133 133 134 137 136 136 144 153 154 154 155 157 164 165 140 123 120 114 103 97 95 96 95 91 86 78 71 70 70 69 66 53 40 45 57 68 64 39 25 31 41 44 52 60 54 50 46 44 46 39 33 37 41 39 37 36 34
301 140 131 131 97 106 127 173 219 87 69 75 95 117 116 109 113 124 126 129 136 140 143 143 140 137 135 134 135 134 135 137 139 143 150 154 155 154 155 159 165 169 161 138 126 124 123 117 112 107 102 99 93 86 81 78 76 73 71 71 61 40 41 57 69 63 32 22 30 39 42 52 67 56 46 45 46 46 40 32 35 40 40 38 38 36
239 125 99 105 124 100 68 54 88 86 77 78 91 104 110 110 112 116 118 125 134 139 141 140 136 135 137 137 135 133 138 142 143 151 160 156 151 154 159 164 164 153 136 125 121 123 122 120 119 115 109 107 105 101 101 95 84 76 72 72 64 44 38 52 67 62 35 27 31 33 37 49 67 55 42 43 49 49 42 35 34 38 40 39 39 39
230 188 85 101 136 115 66 65 98 95 95 97 98 103 110 114 119 123 125 129 131 131 131 128 129 133 136 137 136 136 142 145 146 153 161 153 144 152 158 154 141 130 125 125 126 127 125 121 120 113 104 100 95 86 91 94 85 80 78 74 69 54 38 45 63 65 46 33 32 31 35 44 54 49 35 33 42 48 44 36 32 34 39 40 39 39
193 135 102 97 103 96 103 121 106 98 101 101 98 106 115 116 117 114 112 116 117 117 120 124 129 135 136 137 139 139 141 147 151 154 157 148 141 144 142 132 125 125 130 135 133 130 127 123 119 113 105 102 91 72 75 82 81 85 85 77 73 65 44 39 48 53 48 41 36 33 35 39 41 38 29 23 28 37 38 32 27 30 39 42 39 38
107 106 108 106 100 94 107 123 115 106 106 104 100 101 104 109 114 111 108 112 115 115 121 126 132 137 138 139 143 142 142 150 157 156 151 143 138 132 124 121 123 124 128 130 128 126 124 120 116 113 109 108 104 90 85 84 81 82 83 77 76 77 62 44 38 39 39 37 34 32 33 34 30 27 27 26 27 28 26 22 22 29 37 39 37 38
85 105 113 116 125 141 148 142 131 120 123 128 119 112 109 110 114 114 116 120 122 125 130 131 132 137 139 142 146 145 144 154 160 153 139 130 128 125 124 127 128 120 116 120 121 122 123 120 116 115 113 110 108 103 96 89 83 81 81 76 73 80 77 57 39 34 32 27 23 22 27 33 28 22 23 28 33 32 24 14 12 21 28 28 29 37
121 151 151 136 147 165 155 141 126 111 119 126 120 117 118 116 115 120 127 129 129 134 138 136 136 139 140 146 152 153 154 157 151 138 126 123 125 127 132 136 132 121 117 120 120 120 122 121 118 119 118 114 111 108 97 79 71 75 82 77 70 81 88 68 47 40 34 24 17 13 18 31 37 30 23 23 32 37 32 25 19 17 22 24 22 29